Station 46047 (LLNR 82) - TANNER BANK - 121 NM West of San Diego, CA Image indicating link to RSS feed of recent meteorological observations for station 46047


Conditions at 46047 as of
(3:40 am PDT)
1040 GMT on 06/17/2024:
     

Click on the graph icon in the table below to see a time series plot of the last five days of that observation.

5-day plot - Wind Direction Wind Direction (WDIR): NW ( 320 deg true )
5-day plot - Wind Speed Wind Speed (WSPD): 23.3 kts
5-day plot - Wind Gust Wind Gust (GST): 29.1 kts
5-day plot - Atmospheric Pressure Atmospheric Pressure (PRES):29.73 in
5-day plot - Air Temperature Air Temperature (ATMP): 58.8 °F
5-day plot - Water Temperature Water Temperature (WTMP): 57.9 °F
5-day plot - Dew Point Dew Point (DEWP): 56.1 °F
5-day plot - Wind Speed at 10 Meters Wind Speed at 10 meters (WSPD10M): 25.3 kts
5-day plot - Wind Speed at 20 Meters Wind Speed at 20 meters (WSPD20M): 27.2 kts
5-day plot -  Wind Speed, Wind Gust and Atmospheric Pressure Combined plot of Wind Speed, Gust, and Air Pressure
Supplemental Measurements
Highest 1-minute Wind Speed
Time (PDT)5-day plot - 1-Minute Wind Speed WSPD 5-day plot - 1-Minute Wind Direction WDIR
3:35 am 25.3 kts-
Previous observations
TIME
(PDT)
5-day plot - Wind Direction
WDIR
 
5-day plot - Wind Speed
WSPD
kts
5-day plot - Wind Gust
GST
kts
5-day plot - Wave Height
WVHT
ft
5-day plot - Dominant Wave Period
DPD
sec
5-day plot - Average Wave Period
APD
sec
5-day plot - Mean Wave Direction
MWD
 
5-day plot - Atmospheric Pressure
PRES
in
5-day plot - Pressure Tendency
PTDY
in
5-day plot - Air Temperature
ATMP
°F
5-day plot - Water Temperature
WTMP
°F
5-day plot - Dew Point
DEWP
°F
5-day plot - Salinity
SAL
psu
5-day plot - Visibility
VIS
nmi
5-day plot - Tide (above MLLW)
TIDE
ft
2024-06-17 03:30 am NW 23.3 27.2----29.72- 58.8 57.9 56.1---
2024-06-17 03:20 am NW 21.4 29.1 11.8 106.8 NW29.73- 58.8 58.1 56.1---
2024-06-17 03:10 am NW 21.4 25.3 11.8-6.8 NW29.73- 58.8 58.1 56.1---
2024-06-17 03:00 am NW 21.4 27.2----29.73-0.01 58.6 58.1 55.9---
2024-06-17 02:50 am NW 21.4 25.3 11.8 106.9 NW29.73- 58.6 58.1 55.9---
2024-06-17 02:40 am NW 21.4 27.2----29.73- 58.6 58.1 55.9---
2024-06-17 02:30 am NW 19.4 27.2----29.73- 58.6 58.1 55.9---
2024-06-17 02:20 am NW 21.4 27.2 10.2 96.5 NW29.73- 58.6 58.1 55.8---
2024-06-17 02:10 am NW 21.4 27.2 10.2-6.5 NW29.73- 58.6 58.1 55.8---
2024-06-17 02:00 am NW 21.4 27.2----29.73-0.03 58.8 58.1 55.8---
2024-06-17 01:50 am NW 23.3 29.1 10.5 106.7 NW29.73- 58.8 58.1 55.6---
2024-06-17 01:40 am NW 23.3 29.1 10.5-6.7 NW29.73- 58.8 58.1 55.4---
2024-06-17 01:30 am NW 21.4 27.2----29.73- 58.8 58.1 55.6---
2024-06-17 01:20 am NW 23.3 29.1 11.5 107.1 NW29.73- 58.8 58.1 55.4---
2024-06-17 01:10 am NW 21.4 27.2----29.73- 59.0 58.1 55.6---
2024-06-17 01:00 am NW 23.3 29.1----29.73-0.04 59.0 58.1 55.6---
2024-06-17 12:50 am NW 21.4 25.3 10.8 107.0 NW29.74- 59.0 58.1 55.6---
2024-06-17 12:40 am NW 21.4 27.2 10.8-7.0 NW29.75- 59.0 58.1 55.6---
2024-06-17 12:30 amWNW 21.4 27.2----29.75- 59.0 58.3 55.6---
2024-06-17 12:20 am NW 21.4 27.2 11.5 106.9 NW29.75- 58.8 58.3 55.4---
2024-06-17 12:10 amWNW 21.4 27.2 11.5-6.9 NW29.75- 58.8 58.3 55.4---
2024-06-17 12:00 amWNW 21.4 27.2----29.75-0.01 59.0- 55.4---
2024-06-16 11:50 pmWNW 21.4 27.2 12.1 106.9 NW29.75- 58.8 58.3 55.2---
2024-06-16 11:40 pm NW 21.4 27.2 12.1-6.9 NW29.76- 58.8 58.3 55.2---
2024-06-16 11:30 pmWNW 21.4 27.2----29.76- 58.8 58.3 55.2---
2024-06-16 11:20 pm NW 19.4 25.3 11.8 107.2 NW29.76- 58.8 58.3 55.2---
2024-06-16 11:10 pmWNW 19.4 25.3 11.8-7.2 NW29.76- 58.8 58.3 55.2---
2024-06-16 11:00 pmWNW 21.4 25.3----29.77+0.00 58.8 58.3 55.2---
2024-06-16 10:50 pmWNW 21.4 27.2 11.5 107.2 NW29.76- 58.8 58.3 55.4---
2024-06-16 10:40 pmWNW 19.4 27.2----29.77- 58.8 58.3 55.4---
2024-06-16 10:30 pmWNW 21.4 27.2----29.77- 58.8 58.3 55.2---
2024-06-16 10:20 pmWNW 21.4 25.3 11.5 96.9 NW29.77- 58.6 58.3 55.2---
2024-06-16 10:10 pmWNW 21.4 25.3 11.5-6.9 NW29.77- 58.6 58.3 55.2---
2024-06-16 10:00 pmWNW 21.4 25.3----29.77+0.00 58.6 58.3 55.4---
2024-06-16 09:50 pmWNW 19.4 25.3 11.5 107.0 NW29.77- 58.6 58.3 55.4---
2024-06-16 09:40 pmWNW 19.4 25.3 11.5-7.0 NW29.77- 58.6 58.3 55.4---
2024-06-16 09:30 pmWNW 19.4 23.3----29.77- 58.6 58.3 55.4---
2024-06-16 09:20 pmWNW 19.4 25.3 12.5 107.3 NW29.77- 58.6 58.3 55.4---
2024-06-16 09:10 pmWNW 21.4 27.2----29.77- 58.6 58.3 55.4---
2024-06-16 09:00 pmWNW 21.4 27.2----29.77+0.00 58.5 58.3 55.2---
2024-06-16 08:50 pmWNW 21.4 27.2 11.2 97.0 NW29.76- 58.5 58.3 55.4---
2024-06-16 08:40 pmWNW 19.4 25.3----29.77- 58.5 58.3 55.4---
2024-06-16 08:30 pmWNW 19.4 23.3----29.77- 58.5 58.3 55.6---
2024-06-16 08:20 pmWNW 19.4 25.3 12.1 107.5 NW29.77- 58.6 58.3 55.8---
2024-06-16 08:10 pmWNW 19.4 25.3 12.1-7.5 NW29.77- 58.6 58.3 55.6---
2024-06-16 08:00 pmWNW 19.4 25.3----29.76-0.01 58.6 58.5 55.6---
2024-06-16 07:50 pmWNW 19.4 23.3 11.8 107.4 NW29.77- 58.6 58.5 55.6---
2024-06-16 07:40 pmWNW 19.4 25.3----29.77- 58.6 58.5 55.8---
2024-06-16 07:30 pmWNW 19.4 25.3----29.76- 58.6 58.5 55.9---
2024-06-16 07:20 pmWNW 19.4 25.3 11.8 117.4 NW29.77- 58.5 58.5 55.8---
2024-06-16 07:10 pmWNW 19.4 23.3 11.8-7.4 NW29.76- 58.5 58.5 55.9---
2024-06-16 07:00 pmWNW 19.4 25.3----29.77-0.02 58.5 58.5 55.8---
2024-06-16 06:50 pmWNW 19.4 23.3 11.2 106.9 NW29.77- 58.5 58.5 56.1---
2024-06-16 06:40 pmWNW 19.4 23.3----29.76- 58.5 58.5 56.1---
2024-06-16 06:30 pmWNW 17.5 21.4----29.76- 58.5 58.5 56.1---
2024-06-16 06:20 pmWNW 19.4 25.3 10.8 107.1 NW29.77- 58.5 58.5 55.9---
2024-06-16 06:10 pmWNW 17.5 23.3 10.8-7.1 NW29.76- 58.5 58.5 56.1---
2024-06-16 06:00 pmWNW 19.4 25.3----29.77-0.03 58.5 58.5 55.9---
2024-06-16 05:50 pmWNW 19.4 25.3 11.2 117.1 NW29.76- 58.5 58.5 55.9---
2024-06-16 05:40 pm NW 19.4 25.3----29.77- 58.5 58.5 55.9---
2024-06-16 05:30 pmWNW 19.4 23.3----29.77- 58.5 58.5 56.1---
2024-06-16 05:20 pmWNW 19.4 23.3 12.1 107.3WNW29.77- 58.3 58.5 56.1---
2024-06-16 05:10 pmWNW 17.5 23.3 12.1-7.3WNW29.77- 58.5 58.5 56.3---
2024-06-16 05:00 pmWNW 17.5 25.3----29.77-0.04 58.3- 56.3---
2024-06-16 04:50 pm NW 17.5 21.4 10.2 106.9 NW29.78- 58.3 58.5 56.3---
2024-06-16 04:40 pmWNW 17.5 25.3----29.78- 58.3 58.5 56.3---
2024-06-16 04:10 pm NW 19.4 23.3 9.8-6.8 NW29.78- 58.3 58.5 56.3---
2024-06-16 04:00 pm NW 19.4 25.3----29.79-0.03 58.3 58.5 56.3---
2024-06-16 03:50 pmWNW 19.4 23.3 11.8 107.1 NW29.79- 58.3 58.5 56.5---
2024-06-16 03:40 pmWNW 19.4 23.3 11.8-7.1 NW29.79- 58.3- 56.5---
2024-06-16 03:30 pmWNW 19.4 23.3----29.80- 58.3 58.5 56.3---
2024-06-16 03:20 pmWNW 17.5 23.3 11.8 107.0 NW29.80- 58.3 58.5 56.5---
2024-06-16 03:10 pmWNW 21.4 25.3 11.8-7.0 NW29.80- 58.1 58.5 56.1---
2024-06-16 03:00 pmWNW 19.4 25.3----29.80-0.02 58.1 58.5 56.3---
2024-06-16 02:50 pmWNW 19.4 25.3 10.8 96.7 NW29.80- 58.1 58.5 56.3---
2024-06-16 02:40 pmWNW 21.4 25.3----29.80- 58.1 58.5 56.1---
2024-06-16 02:30 pmWNW 19.4 25.3----29.80- 57.9 58.5 56.1---
2024-06-16 02:20 pmWNW 19.4 25.3 10.2 106.8 NW29.80- 58.1 58.5 56.3---
2024-06-16 02:10 pmWNW 21.4 25.3 10.2-6.8 NW29.80- 57.9 58.5 56.1---
2024-06-16 02:00 pmWNW 19.4 23.3----29.81-0.02 57.9 58.5 56.1---
2024-06-16 01:50 pmWNW 19.4 23.3 10.5 117.0 NW29.81- 58.1 58.5 56.3---
2024-06-16 01:40 pmWNW 19.4 25.3 10.5-7.0 NW29.81- 58.1 58.5 56.1---
2024-06-16 01:30 pmWNW 19.4 27.2----29.81- 57.9 58.3 55.9---
2024-06-16 01:20 pmWNW 21.4 25.3 10.5 106.8 NW29.82- 57.9 58.3 55.9---
2024-06-16 01:10 pmWNW 19.4 25.3 10.5-6.8 NW29.82- 57.9 58.3 56.1---
2024-06-16 01:00 pmWNW 19.4 25.3----29.81-0.01 57.9 58.3 56.1---
2024-06-16 12:50 pmWNW 19.4 25.3 11.2 117.0 NW29.82- 57.9 58.3 56.1---
2024-06-16 12:40 pmWNW 21.4 27.2----29.82- 57.9 58.3 55.9---
2024-06-16 12:30 pmWNW 19.4 25.3----29.82- 57.9 58.3 55.9---
2024-06-16 12:20 pmWNW 21.4 25.3 11.2 117.1 NW29.82- 57.7 58.3 55.8---
2024-06-16 12:10 pmWNW 19.4 25.3 11.2-7.1 NW29.82- 57.9 58.3 55.9---
2024-06-16 12:00 pm NW 19.4 25.3----29.82+0.00 57.9 58.3 55.9---
2024-06-16 11:50 amWNW 19.4 23.3 11.2 96.9 NW29.83- 57.9 58.3 55.9---
2024-06-16 11:40 amWNW 19.4 23.3----29.82- 57.7 58.3 55.8---
2024-06-16 11:30 amWNW 19.4 25.3----29.82- 57.7 58.3 55.8---
2024-06-16 11:20 amWNW 19.4 25.3 11.8 97.0 NW29.82- 57.7 58.3 55.6---
2024-06-16 11:10 am NW 19.4 25.3 11.8-7.0 NW29.83- 57.9 58.3 55.9---
2024-06-16 11:00 amWNW 19.4 25.3----29.83+0.02 57.7 58.3 55.8---
2024-06-16 10:50 amWNW 19.4 23.3 12.8 107.4 NW29.83- 57.7 58.3 55.8---
2024-06-16 10:40 amWNW 17.5 23.3 12.8-7.4 NW29.82- 57.7 58.3 55.8---
2024-06-16 10:30 am NW 17.5 23.3----29.83- 57.9 58.3 55.9---
2024-06-16 10:20 amWNW 19.4 25.3 12.5 107.4 NW29.83- 57.7 58.3 55.6---
2024-06-16 10:10 am NW 19.4 23.3 12.5-7.4 NW29.82- 57.7 58.1 55.6---
2024-06-16 10:00 am NW 19.4 25.3----29.83+0.03 57.7 58.1 55.8---
2024-06-16 09:50 am NW 19.4 23.3 13.5 117.6 NW29.82- 57.7 58.1 55.8---
2024-06-16 09:40 am NW 21.4 27.2 13.5-7.6 NW29.82- 57.7 58.1 55.6---
2024-06-16 09:30 am NW 19.4 25.3----29.82- 57.7 58.1 55.8---
2024-06-16 09:20 am NW 17.5 23.3 12.5 117.1 NW29.82- 57.7 58.1 55.8---
2024-06-16 09:10 am NW 19.4 27.2 12.5-7.1 NW29.82- 57.7 58.1 55.6---
2024-06-16 09:00 am NW 21.4 27.2----29.82+0.02 57.7 58.1 55.6---
2024-06-16 08:50 am NW 19.4 23.3----29.82- 57.7 58.1 55.8---
2024-06-16 08:40 am NW 19.4 25.3----29.82- 57.7 58.1 55.6---
2024-06-16 08:30 am NW 19.4 27.2----29.81- 57.7 58.1 55.6---
2024-06-16 08:20 am NW 21.4 27.2 12.8 107.2 NW29.82- 57.7 58.1 55.6---
2024-06-16 08:10 am NW 19.4 25.3----29.81- 57.7 57.9 55.6---
2024-06-16 08:00 am NW 21.4 27.2----29.81+0.02 57.7 57.9 55.6---
2024-06-16 07:50 am NW 21.4 25.3 11.8 107.0 NW29.80- 57.7 57.9 55.8---
2024-06-16 07:40 am NW 21.4 25.3----29.80- 57.7 57.9 55.8---
2024-06-16 07:30 am NW 19.4 25.3----29.80- 57.7 57.9 55.8---
2024-06-16 07:20 am NW 21.4 27.2 13.1 117.5 NW29.80- 57.6 57.9 55.6---
2024-06-16 07:10 am NW 19.4 27.2 13.1-7.5 NW29.80- 57.7 57.9 55.9---
2024-06-16 07:00 am NW 19.4 25.3----29.80+0.00 57.7 57.9 55.8---
2024-06-16 06:50 am NW 19.4 25.3 13.1 107.2 NW29.80- 57.7 58.1 55.9---
2024-06-16 06:40 am NW 19.4 25.3 13.1-7.2 NW29.80- 57.7 58.1 55.8---
2024-06-16 06:30 am NW 21.4 25.3----29.80- 57.7 57.9 55.8---
2024-06-16 06:20 am NW 17.5 23.3 13.1 107.2 NW29.80- 57.7 58.1 55.9---
2024-06-16 06:10 am NW 21.4 27.2 13.1-7.2 NW29.80- 57.7 58.1 55.6---
2024-06-16 06:00 am NW 19.4 25.3----29.80+0.01 57.7 58.1 55.8---
2024-06-16 05:50 am NW 19.4 25.3 13.8 117.3 NW29.80- 57.7 58.1 55.8---
2024-06-16 05:40 am NW 21.4 25.3----29.80- 57.7 58.1 55.8---
2024-06-16 05:30 am NW 21.4 29.1----29.79- 57.7 58.1 55.6---
2024-06-16 05:20 am NW 21.4 27.2 12.8 107.1WNW29.79- 57.7 58.1 55.6---
2024-06-16 05:10 am NW 21.4 27.2 12.8-7.1WNW29.79- 57.9 58.1 55.8---
2024-06-16 05:00 am NW 21.4 29.1----29.79-0.02 57.9 58.1 55.6---
2024-06-16 04:50 am NW 23.3 29.1 13.5 107.3 NW29.79- 57.9 58.1 55.6---
2024-06-16 04:40 am NW 23.3 29.1 13.5-7.3 NW29.79- 57.9 58.1 55.8---
2024-06-16 04:30 am NW 21.4 27.2----29.79- 57.9 58.1 55.8---
2024-06-16 04:20 am NW 21.4 27.2 12.5 117.0WNW29.79- 57.9 58.3 55.6---
2024-06-16 04:10 am NW 21.4 29.1 12.5-7.0WNW29.79- 57.9 58.3 55.8---
2024-06-16 04:00 am NW 23.3 31.1----29.79-0.03 57.9 58.3 55.4---
2024-06-16 03:50 am NW 23.3 29.1 12.8 117.1 NW29.79- 57.9 58.3 55.6---

Detailed Wave Summary
for 46047 as of (3:10 am PDT)
1010 GMT on 06/17/2024:

These wave data are displayed in rounded times.

     

Click on the graph icon in the table below to see a time series plot of the last five days of that observation.

5-day plot - Significant Wave Height Significant Wave Height (WVHT): 11.8 ft
5-day plot - Swell Height Swell Height (SwH): 7.9 ft
5-day plot - Swell Period Swell Period (SwP): 10.0 sec
5-day plot - Swell Direction Swell Direction (SwD): NW
5-day plot - Wind Wave Height Wind Wave Height (WWH): 8.5 ft
5-day plot - Wind Wave Period Wind Wave Period (WWP): 7.1 sec
5-day plot - Wind Wave Direction Wind Wave Direction (WWD): NW
5-day plot - Wave Steepness Wave Steepness (STEEPNESS): AVERAGE
5-day plot - Average Wave Period Average Wave Period (APD): 6.8 sec
Previous observations
TIME
(PDT)
5-day plot - Wave Height
WVHT
ft
5-day plot - Swell Height
SwH
ft
5-day plot - Swell Period
SwP
sec
5-day plot - Swell Direction
SwD
 
5-day plot - Wind Wave Height
WWH
ft
5-day plot - Wind Wave Period
WWP
sec
5-day plot - Wind Wave Direction
WWD
 
5-day plot - Wave Steepness
STEEPNESS
 
5-day plot - Average Wave Period
APD
sec
2024-06-17 02:40 am 11.8 8.2 10.0 NW 8.5 5.0 NW AVERAGE 6.9
2024-06-17 02:10 am 10.2 6.9 9.1 NW 7.2 7.7 WNW STEEP 6.5
2024-06-17 01:40 am 10.5 7.5 10.0 NW 7.5 6.7 NW AVERAGE 6.7
2024-06-17 01:10 am 11.5 8.5 10.0 NW 8.2 6.2 NW AVERAGE 7.1
2024-06-17 12:40 am 10.8 7.9 10.0 NW 7.2 7.1 NW AVERAGE 7.0
2024-06-17 12:10 am 11.5 8.2 10.0 NW 7.9 5.9 NW AVERAGE 6.9
2024-06-16 11:40 pm 12.1 7.2 10.0 NW 9.8 6.7 NW AVERAGE 6.9
2024-06-16 11:10 pm 11.8 7.2 10.0 NW 9.5 7.7 NW AVERAGE 7.2
2024-06-16 10:40 pm 11.5 8.5 10.0 NW 7.9 6.2 WNW AVERAGE 7.2
2024-06-16 10:10 pm 11.5 7.9 9.1 NW 8.2 7.7 NW STEEP 6.9
2024-06-16 09:40 pm 11.5 6.9 10.0 NW 9.2 7.1 NW AVERAGE 7.0
2024-06-16 09:10 pm 12.5 7.9 10.0 NW 9.8 7.1 NW AVERAGE 7.3
2024-06-16 08:40 pm 11.2 7.9 9.1 NW 7.5 6.7 NW STEEP 7.0
2024-06-16 08:10 pm 12.1 9.8 10.0 NW 7.5 6.2 NW AVERAGE 7.5
2024-06-16 07:40 pm 11.8 8.9 10.0 NW 7.9 6.7 NW AVERAGE 7.4
2024-06-16 07:10 pm 11.8 8.9 10.8 NW 7.9 7.7 NW AVERAGE 7.4
2024-06-16 06:40 pm 11.2 7.5 10.0 NW 8.2 5.3 WNW AVERAGE 6.9
2024-06-16 06:10 pm 10.8 8.2 10.0 NW 7.2 7.7 NW AVERAGE 7.1
2024-06-16 05:40 pm 11.2 8.2 10.8 NW 7.5 5.9 WNW AVERAGE 7.1
2024-06-16 05:10 pm 12.1 9.2 10.0WNW 7.5 6.7 NW AVERAGE 7.3
2024-06-16 04:40 pm 10.2 7.2 10.0 NW 7.2 7.7 NW AVERAGE 6.9
2024-06-16 04:10 pm 9.8 7.5 8.3 NW 6.6 6.7 NW STEEP 6.8
2024-06-16 03:40 pm 11.8 8.5 10.0 NW 7.9 6.7 NW AVERAGE 7.1
2024-06-16 03:10 pm 11.8 8.9 10.0 NW 7.5 7.1 NW AVERAGE 7.0
2024-06-16 02:40 pm 10.8 7.2 9.1 NW 8.2 6.7 NW STEEP 6.7
2024-06-16 02:10 pm 10.2 7.9 10.0 NW 6.6 6.7 NW AVERAGE 6.8
2024-06-16 01:40 pm 10.5 8.2 10.8 NW 6.6 7.7 NW AVERAGE 7.0
2024-06-16 01:10 pm 10.5 8.2 10.0 NW 6.6 7.1 WNW AVERAGE 6.8
2024-06-16 12:40 pm 11.2 8.9 10.8 NW 6.9 6.7 NW AVERAGE 7.0
2024-06-16 12:10 pm 11.2 8.2 10.8 NW 7.5 6.7 NW AVERAGE 7.1
2024-06-16 11:40 am 11.2 8.5 9.1 NW 7.2 7.7 NW STEEP 6.9
2024-06-16 11:10 am 11.8 9.2 9.1 NW 7.5 7.1 NW STEEP 7.0
2024-06-16 10:40 am 12.8 9.8 10.0 NW 7.9 7.1 NW AVERAGE 7.4
2024-06-16 10:10 am 12.5 8.5 10.0 NW 8.9 7.7 NW AVERAGE 7.4
2024-06-16 09:40 am 13.5 9.5 10.8 NW 9.5 8.3 NW AVERAGE 7.6
2024-06-16 09:10 am 12.5 7.9 10.8 NW 9.8 7.1 NW AVERAGE 7.1
2024-06-16 08:10 am 12.8 8.5 10.0 NW 9.8 7.1 NW AVERAGE 7.2
2024-06-16 07:40 am 11.8 7.2 10.0 NW 9.5 6.2 NW AVERAGE 7.0
2024-06-16 07:10 am 13.1 8.5 10.8 NW 9.5 6.2 NW AVERAGE 7.5
2024-06-16 06:40 am 13.1 8.2 10.0 NW 10.2 8.3 NW AVERAGE 7.2
2024-06-16 06:10 am 13.1 10.2 10.0 NW 8.5 5.6 NW AVERAGE 7.2
2024-06-16 05:40 am 13.8 6.6 10.8 NW 12.1 8.3 NW AVERAGE 7.3
2024-06-16 05:10 am 12.8 9.5 10.0WNW 8.5 6.7 NW AVERAGE 7.1
2024-06-16 04:40 am 13.5 10.2 10.0 NW 9.2 5.9 NW STEEP 7.3
2024-06-16 04:10 am 12.5 8.9 10.8WNW 8.5 7.1 NW AVERAGE 7.0

Plot of wave energy versus frequency (and period)